Westfield, MA

4:56 AM EST on February 12, 2016 (GMT -0500)
Barnes Municipal

Weather History for KBAF - May, 2014

Change the Weather History Date:

Friday, May 30, 2014

  Actual Average Record
Temperature  
Mean Temperature 62 °F -  
Max Temperature 75 °F 69 °F 91 °F (2011)
Min Temperature 48 °F 48 °F 39 °F (2000)
Degree Days  
Heating Degree Days 4    
Growing Degree Days 12 (Base 50)    
Moisture  
Dew Point 49 °F    
Average Humidity 69    
Maximum Humidity 93    
Minimum Humidity 37    
Precipitation  
Precipitation 0.00 in - - ()
Sea Level Pressure  
Sea Level Pressure 30.05 in    
Wind  
Wind Speed 5 mph (North)    
Max Wind Speed 18 mph    
Max Gust Speed -    
Visibility 10 miles    
Events Rain , Thunderstorm    
Averages and records for this station are not official NWS values.
T = Trace of Precipitation, MM = Missing Value Source: NWS Daily Summary

Daily Weather History Graph

Daily Weather History Graph

Search for Another Location

Airport or City:

Trip Planner

Search our weather history database for the weather conditions in past years. The results will help you decide how hot, cold, wet, or windy it might be!

Date:

Astronomy

May. 30, 2014 Rise Set
Actual Time 5:18 AM EDT 8:18 PM EDT
Civil Twilight 4:44 AM EDT 8:52 PM EDT
Nautical Twilight 4:02 AM EDT 9:35 PM EDT
Astronomical Twilight 3:11 AM EDT 10:26 PM EDT
Moon 7:01 AM EDT (5/30) 9:52 PM EDT (5/30)
Length of Visible Light 16h 07m
Length of Day
15h 00m
Waxing Crescent, 4% of the Moon is Illuminated
May 30
Waxing Crescent
Jun 5
First Quarter
Jun 13
Full
Jun 19
Last Quarter
Jun 27
New

Hourly Weather History & Observations

Time (EDT) Temp. Dew Point Humidity Pressure Visibility Wind Dir Wind Speed Gust Speed Precip Events Conditions
12:53 AM 52.0 °F 45.0 °F 77% 30.13 in 10.0 mi SSE 8.1 mph - N/A   Clear
1:53 AM 50.0 °F 45.0 °F 83% 30.12 in 10.0 mi SSE 4.6 mph - N/A   Mostly Cloudy
2:53 AM 50.0 °F 45.0 °F 83% 30.11 in 10.0 mi South 3.5 mph - N/A   Clear
3:53 AM 50.0 °F 46.0 °F 86% 30.10 in 10.0 mi SSE 3.5 mph - N/A   Overcast
4:53 AM 50.0 °F 46.0 °F 86% 30.09 in 10.0 mi South 3.5 mph - N/A   Overcast
5:53 AM 48.9 °F 46.0 °F 90% 30.09 in 10.0 mi Calm Calm - N/A   Overcast
6:53 AM 51.1 °F 46.9 °F 86% 30.09 in 10.0 mi Calm Calm - N/A   Overcast
7:53 AM 54.0 °F 46.9 °F 77% 30.09 in 10.0 mi Calm Calm - N/A   Mostly Cloudy
8:53 AM 57.9 °F 46.9 °F 67% 30.09 in 10.0 mi Calm Calm - N/A   Overcast
9:53 AM 61.0 °F 48.9 °F 64% 30.07 in 10.0 mi Calm Calm - 0.00 in   Mostly Cloudy
10:53 AM 66.9 °F 51.1 °F 57% 30.06 in 10.0 mi North 4.6 mph - N/A   Partly Cloudy
11:53 AM 70.0 °F 48.9 °F 47% 30.04 in 10.0 mi North 8.1 mph - N/A   Mostly Cloudy
12:53 PM 69.1 °F 50.0 °F 51% 30.03 in 10.0 mi ENE 4.6 mph - N/A   Overcast
1:53 PM 71.1 °F 50.0 °F 47% 30.02 in 10.0 mi North 4.6 mph - N/A   Mostly Cloudy
2:53 PM 73.9 °F 46.9 °F 38% 30.01 in 10.0 mi NW 8.1 mph - N/A   Mostly Cloudy
3:53 PM 75.0 °F 46.9 °F 37% 29.99 in 10.0 mi Calm Calm - N/A   Partly Cloudy
4:53 PM 71.1 °F 50.0 °F 47% 29.98 in 10.0 mi West 5.8 mph - N/A   Overcast
5:03 PM 71.1 °F 48.9 °F 45% 29.99 in 10.0 mi West 11.5 mph - N/A Thunderstorm Overcast
5:10 PM 66.9 °F 52.0 °F 59% 29.99 in 9.0 mi WNW 18.4 mph - 0.00 in Rain , Thunderstorm Light Thunderstorms and Rain
5:21 PM 64.9 °F 52.0 °F 63% 30.00 in 10.0 mi WNW 10.4 mph - 0.00 in Rain Light Rain
5:45 PM 60.8 °F 51.8 °F 72% 30.01 in 10.0 mi NNE 8.1 mph - N/A Thunderstorm Overcast
5:53 PM 60.8 °F 53.6 °F 77% 30.01 in 10.0 mi NNE 10.4 mph - N/A Thunderstorm Overcast
6:00 PM 62.1 °F 53.1 °F 72% 30.01 in 10.0 mi NNE 10.4 mph - N/A   Overcast
6:53 PM 62.1 °F 53.1 °F 72% 30.03 in 10.0 mi NNE 11.5 mph - N/A   Overcast
7:53 PM 60.1 °F 53.1 °F 78% 30.04 in 10.0 mi NE 5.8 mph - N/A   Clear
8:53 PM 57.9 °F 53.1 °F 84% 30.05 in 10.0 mi Calm Calm - N/A   Scattered Clouds
9:53 PM 55.9 °F 52.0 °F 87% 30.06 in 10.0 mi North 3.5 mph - N/A   Clear
10:53 PM 54.0 °F 51.1 °F 90% 30.06 in 10.0 mi NNE 3.5 mph - N/A   Clear
11:53 PM 53.1 °F 51.1 °F 93% 30.07 in 10.0 mi North 5.8 mph - N/A   Clear